This is the latest recevied weather packets stored in our database for station/object SQ3RAX-13. If no packets are shown the sender has not sent any weather packets the latest 10 day(s).
| Time | Temp. | Humidity | Pressure | Rain* | Wind** | Luminosity | Snow |
|---|---|---|---|---|---|---|---|
| 1777652700 | 21.67° C | 27% | 1025 hPa | 0 mm | - | - | - |
| 1777652100 | 21.67° C | 27% | 1025 hPa | 0 mm | - | - | - |
| 1777651500 | 21.67° C | 42% | 1026 hPa | 0 mm | - | - | - |
| 1777650900 | 21.67° C | 42% | 1026 hPa | 0 mm | - | - | - |
| 1777650300 | 21.67° C | 41% | 1026 hPa | 0 mm | - | - | - |
| 1777649700 | 21.67° C | 38% | 1026 hPa | 0 mm | - | - | - |
| 1777649100 | 22.22° C | 29% | 1026 hPa | 0 mm | - | - | - |
| 1777648500 | 22.22° C | 30% | 1026 hPa | 0 mm | - | - | - |
| 1777647900 | 21.67° C | 34% | 1026 hPa | 0 mm | - | - | - |
| 1777647300 | 21.67° C | 34% | 1026 hPa | 0 mm | - | - | - |
| 1777646700 | 21.67° C | 33% | 1026 hPa | 0 mm | - | - | - |
| 1777646100 | 22.22° C | 30% | 1026 hPa | 0 mm | - | - | - |
| 1777645500 | 22.22° C | 36% | 1026 hPa | 0 mm | - | - | - |
| 1777644900 | 21.11° C | 34% | 1026 hPa | 0 mm | - | - | - |
| 1777644300 | 21.11° C | 34% | 1026 hPa | 0 mm | - | - | - |
| 1777643700 | 21.11° C | 34% | 1026 hPa | 0 mm | - | - | - |
| 1777643100 | 21.67° C | 34% | 1026 hPa | 0 mm | - | - | - |
| 1777642500 | 21.67° C | 34% | 1026 hPa | 0 mm | - | - | - |
| 1777641900 | 21.67° C | 33% | 1027 hPa | 0 mm | - | - | - |
| 1777641299 | 21.11° C | 37% | 1027 hPa | 0 mm | - | - | - |
| 1777640700 | 21.11° C | 37% | 1027 hPa | 0 mm | - | - | - |
| 1777640099 | 21.11° C | 37% | 1027 hPa | 0 mm | - | - | - |
| 1777639499 | 21.11° C | 37% | 1027 hPa | 0 mm | - | - | - |
| 1777638899 | 21.11° C | 37% | 1027 hPa | 0 mm | - | - | - |
| 1777638299 | 21.11° C | 38% | 1027 hPa | 0 mm | - | - | - |
* Rain latest hour (hover to see other rain measurements)
** Current wind speed in m/s (hover to see current wind gust speed)